This is the latest recevied weather packets stored in our database for station/object SP1BMW-13. If no packets are shown the sender has not sent any weather packets the latest 10 day(s).
| Time | Temp. | Humidity | Pressure | Rain* | Wind** | Luminosity | Snow |
|---|---|---|---|---|---|---|---|
| 1787496766 | 18.89° C | 54% | 1017.1 hPa | 0 mm | 1.34 m/s, 159° | 38 W/m² | - |
| 1787496706 | 18.89° C | 53% | 1017.1 hPa | 0 mm | 0.45 m/s, 132° | 52 W/m² | - |
| 1787496646 | 18.89° C | 54% | 1017.1 hPa | 0 mm | 0.89 m/s, 112° | 63 W/m² | - |
| 1787496586 | 19.44° C | 53% | 1017 hPa | 0 mm | 1.79 m/s, 186° | 71 W/m² | - |
| 1787496526 | 19.44° C | 53% | 1017.2 hPa | 0 mm | 0.89 m/s, 265° | 82 W/m² | - |
| 1787496466 | 19.44° C | 53% | 1017.2 hPa | 0 mm | 1.79 m/s, 284° | 96 W/m² | - |
| 1787496406 | 19.44° C | 53% | 1017.2 hPa | 0 mm | 0.89 m/s, 274° | 121 W/m² | - |
| 1787496346 | 19.44° C | 53% | 1017.2 hPa | 0 mm | 1.79 m/s, 259° | 143 W/m² | - |
| 1787496286 | 19.44° C | 52% | 1017.2 hPa | 0 mm | 0.89 m/s, 284° | 159 W/m² | - |
| 1787496226 | 19.44° C | 52% | 1017.2 hPa | 0 mm | 1.79 m/s, 250° | 151 W/m² | - |
| 1787496166 | 19.44° C | 53% | 1017.2 hPa | 0 mm | 1.34 m/s, 279° | 136 W/m² | - |
| 1787496106 | 19.44° C | 52% | 1017.2 hPa | 0 mm | 1.79 m/s, 305° | 132 W/m² | - |
| 1787496046 | 19.44° C | 51% | 1017.3 hPa | 0 mm | 1.79 m/s, 315° | 130 W/m² | - |
| 1787495986 | 19.44° C | 52% | 1017.1 hPa | 0 mm | 0.89 m/s, 145° | 129 W/m² | - |
| 1787495926 | 19.44° C | 53% | 1017.3 hPa | 0 mm | 1.34 m/s, 229° | 133 W/m² | - |
| 1787495866 | 19.44° C | 53% | 1017.1 hPa | 0 mm | 0.89 m/s, 253° | 138 W/m² | - |
| 1787495806 | 19.44° C | 52% | 1017.2 hPa | 0 mm | 1.79 m/s, 280° | 147 W/m² | - |
| 1787495746 | 19.44° C | 52% | 1017.3 hPa | 0 mm | 1.34 m/s, 283° | 158 W/m² | - |
| 1787495686 | 19.44° C | 54% | 1017.1 hPa | 0 mm | 0.89 m/s, 226° | 167 W/m² | - |
| 1787495626 | 19.44° C | 54% | 1017.2 hPa | 0 mm | 1.34 m/s, 262° | 176 W/m² | - |
| 1787495566 | 19.44° C | 53% | 1017.2 hPa | 0 mm | 0.89 m/s, 303° | 186 W/m² | - |
| 1787495506 | 19.44° C | 53% | 1017.2 hPa | 0 mm | 1.34 m/s, 250° | 189 W/m² | - |
| 1787495446 | 19.44° C | 52% | 1017.4 hPa | 0 mm | 0.89 m/s, 159° | 185 W/m² | - |
| 1787495386 | 19.44° C | 52% | 1017.4 hPa | 0 mm | 1.79 m/s, 248° | 185 W/m² | - |
| 1787495326 | 19.44° C | 52% | 1017.1 hPa | 0 mm | 1.79 m/s, 259° | 186 W/m² | - |
* Rain latest hour (hover to see other rain measurements)
** Current wind speed in m/s (hover to see current wind gust speed)